Regional Weather Roundup
Issued by NWS

Home | Current Version | Previous Version | Graphics & Text | Print | Product List | Glossary On
Versions: 1 2 3 4 5 6 7 8 9 10 11 12 13 14 15 16 17 18 19 20 21 22 23 24 25 26 27 28 29 30 31 32 33 34 35 36 37 38 39 40 41 42 43 44 45 46 47 48 49 50
000
ASUS43 KIND 140759
RWRIN

WEATHER ROUNDUP FOR INDIANA
NATIONAL WEATHER SERVICE INDIANAPOLIS IN
300 AM EST SUN FEB 14 2016

NOTE: "FAIR" INDICATES FEW OR NO CLOUDS BELOW 12,000 FEET WITH NO
SIGNIFICANT WEATHER AND/OR OBSTRUCTIONS TO VISIBILITY.

* - STATION DOES NOT REPORT WEATHER SUCH AS PRECIPITATION OR FOG.

+ - STATION NOT QUALITY CONTROLLED BY THE NATIONAL WEATHER SERVICE.
    USE DATA WITH CAUTION...ESPECIALLY DEWPOINT AND RELATIVE
    HUMIDITY OBSERVATIONS.

INZ001>003-010>013-019-020-140900-
NORTHWEST INDIANA

CITY           SKY/WX    TMP DP  RH WIND       PRES   REMARKS
RENSSELAER +   CLOUDY    14   0  52 E7        30.45F WCI   4

$$

LMZ046-743>745-140900-
SOUTHERN LAKE MICHIGAN

STATION/POSITION TIME  TEMP    WIND        PRES    WAVE
                       AIR SEA DIR/SP/G            HT
                 (UTC) (F)     (DEG/KT/KT) (MB)    (FT)
BURNS HARBOR     0700   11     180/  7/ 10 1032.2S
MICHIGAN CITY    0700    9     130/  8/  9   N/A

$$

INZ004-005-014>016-021>024-140900-
NORTH CENTRAL INDIANA

CITY           SKY/WX    TMP DP  RH WIND       PRES   REMARKS
GOSHEN         CLOUDY     9   3  77 CALM      30.46S
SOUTH BEND     CLOUDY     7   1  76 CALM      30.46S

$$

INZ006>009-017-018-025>027-140900-
NORTHEAST INDIANA

CITY           SKY/WX    TMP DP  RH WIND       PRES   REMARKS
ANGOLA *+      CLOUDY     9   5  85 CALM      30.44S
FORT WAYNE     CLOUDY     6   1  80 CALM      30.48S

$$

INZ028-029-035-036-043>045-051>053-140900-
WEST CENTRAL INDIANA

CITY           SKY/WX    TMP DP  RH WIND       PRES   REMARKS
CRAWFORDSVL +  CLOUDY    13   0  55 CALM      30.44S
GREENCASTLE +  CLOUDY    18  -2  41 E8        30.43F WCI   7
LAFAYETTE      CLOUDY    13   2  61 SE6       30.46F WCI   4
TERRE HAUTE    CLOUDY    17   3  54 SE7       30.46S WCI   8

$$

INZ030>032-037>040-046>048-054>057-064-065-140900-
CENTRAL INDIANA

CITY           SKY/WX    TMP DP  RH WIND       PRES   REMARKS
INDIANAPOLIS   CLOUDY    14  -1  51 E7        30.44R WCI   4
-EAGLE CREEK   CLOUDY    13   0  56 E5        30.45S WCI   5
KOKOMO *+      CLOUDY     9   1  72 E7        30.44F WCI  -3
MT COMFORT *+  CLOUDY    12   1  62 E9        30.45S WCI   0
SHELBYVILLE    CLOUDY    14   3  61 E9        30.45S WCI   2

$$

INZ033-034-041-042-049-050-058-059-140900-
EAST CENTRAL INDIANA

CITY           SKY/WX    TMP DP  RH WIND       PRES   REMARKS
MUNCIE         CLOUDY     6  -2  69 E3        30.45F

$$

INZ060-061-067>069-081>083-085>088-140900-
SOUTHWEST INDIANA

CITY           SKY/WX    TMP DP  RH WIND       PRES   REMARKS
EVANSVILLE     CLOUDY    24   4  42 E7        30.42F WCI  16
HUNTINGBURG *+ CLOUDY    19   3  49 E8        30.43F WCI   9

$$

INZ062-063-066-070>080-084-089>092-140900-
SOUTH CENTRAL AND SOUTHEAST INDIANA

CITY           SKY/WX    TMP DP  RH WIND       PRES   REMARKS
BLOOMINGTON    CLOUDY    16   2  54 E8        30.43F WCI   5
MADISON *+     CLOUDY    18   3  53 E5        30.46F WCI  11
SEYMOUR +      CLOUDY    19   3  49 E7        30.46F WCI  10

$$




USA.gov is the U.S. government's official web portal to all federal, state and local government web resources and services.